[[{"header":{"parameterUnit":"m.s-1","parameterCategory":2,"la1":30.2991,"la2":30.254,"lo1":-89.0895,"lo2":-89.0444,"dy":0.0017,"dx":0.0017,"nx":28,"ny":28,"refTime":"2025-06-05T09:00:00:Z","depth":"0","parameterNumber":2,"parameterNumberName":"U-component_of_CURRENTS"},"data":[0,0,0,0,0,0,0,0,0,0,0,0,0,0,0,0,0,0,0,0,0,0,0,0,0,0,0,0,0,0,0,0,0,0,0,0,0,0,0,0,0,0,0,0,0,0,0,0,0,0,0,0,0,0,0,0,0,0,0.3878,0.3878,0,0.3917,0.3917,0.3918,0.3941,0.3941,0.3941,0.3942,0.3988,0.3989,0.399,0,0,0,0,0,0,0,0,0,0,0,0,0,0.3932,0.393,0.3878,0.3878,0.3879,0.3917,0.3917,0.3918,0.3941,0.3941,0.3942,0.3942,0.3987,0.3988,0.399,0,0,0,0,0,0,0,0,0,0,0,0,0,0.3932,0.393,0.3878,0.3896,0.3898,0.3917,0.3917,0.3918,0.3941,0.3941,0.3942,0.3942,0.3987,0.3988,0.399,0.3994,0,0,0.3995,0.3995,0,0,0,0,0,0,0,0,0.3932,0.393,0.3893,0.3895,0.3897,0.3925,0.3954,0.3944,0.3941,0.3924,0.3942,0.3942,0.3968,0.3971,0.3976,0.3996,0.3998,0.3995,0.3996,0.3996,0.3997,0,0,0,0,0,0,0,0.3932,0.3929,0.3892,0.3893,0.3896,0.394,0.3939,0.3952,0.3943,0.3925,0.3927,0.3933,0.3969,0.3975,0.3977,0.3998,0.3995,0.3996,0.3997,0.3998,0.4049,0.4049,0,0,0,0,0,0,0.3923,0.3928,0.3891,0.3893,0.3917,0.3938,0.3937,0.3915,0.3943,0.3947,0.3933,0.3934,0.3972,0.3976,0.3979,0.4002,0.3996,0.3998,0.3999,0.4048,0.4049,0.4049,0,0,0,0,0,0,0.3923,0.3918,0.3889,0.3915,0.3914,0.3936,0.3912,0.3916,0.3927,0.3949,0.3953,0.394,0.3972,0.3977,0.3995,0.4004,0.3999,0.4,0.4048,0.4048,0.4049,0.4038,0,0,0,0,0,0,0.3924,0.3917,0.3903,0.3913,0.3912,0.3898,0.3912,0.3916,0.393,0.3932,0.3956,0.3961,0.3973,0.3993,0.3997,0.4006,0.4001,0.4047,0.4048,0.4049,0.4038,0.4038,0.4038,0,0,0,0,0,0.3925,0.3898,0.3901,0.3898,0.3889,0.3898,0.3901,0.3919,0.393,0.3931,0.3951,0.396,0.4001,0.3994,0.3999,0.4009,0.4047,0.4048,0.4049,0.4038,0.4038,0.4038,0,0,0,0,0,0,0.3913,0.3899,0.3902,0.3871,0.3885,0.3902,0.3904,0.392,0.3937,0.394,0.3963,0.3968,0.3994,0.4,0.3992,0.4026,0.4027,0.4029,0.4017,0.4017,0.4018,0.4033,0.4002,0,0,0,0,0,0.3903,0.3879,0.3885,0.3864,0.3866,0.3888,0.3896,0.3908,0.3924,0.3932,0.3948,0.397,0.4,0.4006,0.403,0.4039,0.4081,0.405,0.405,0.4051,0.4067,0.4132,0.414,0.4052,0.4052,0.4052,0,0,0.3895,0.3885,0.3872,0.3861,0.3871,0.3875,0.3893,0.39,0.3913,0.3934,0.3948,0.3975,0.4006,0.4026,0.4037,0.403,0.4098,0.4052,0.4052,0.4068,0.4134,0.4142,0.415,0.4053,0.4053,0.4053,0,0,0.3868,0.3855,0.383,0.384,0.3851,0.3866,0.3869,0.3884,0.3899,0.3915,0.3947,0.3978,0.3998,0.4031,0.4051,0.4066,0.4105,0.4068,0.4073,0.4135,0.4143,0.4151,0.4218,0.4231,0.4058,0.4058,0.4058,0,0.3861,0.3826,0.383,0.382,0.3831,0.3861,0.3857,0.3878,0.3901,0.392,0.3916,0.3987,0.4007,0.4061,0.4068,0.4069,0.4113,0.4066,0.4136,0.4145,0.4153,0.422,0.4235,0.4058,0.4058,0.4058,0.4058,0,0.3819,0.3805,0.3795,0.3789,0.3804,0.3805,0.3837,0.3856,0.3878,0.3903,0.3955,0.3988,0.4032,0.4042,0.406,0.4128,0.4145,0.4137,0.4136,0.4161,0.423,0.4246,0.4057,0.4057,0.4058,0.4058,0,0,0.3758,0.3763,0.3759,0.3762,0.3789,0.3794,0.3826,0.3862,0.3887,0.3919,0.3963,0.4016,0.4043,0.407,0.4099,0.415,0.4241,0.4165,0.4169,0.4233,0.4393,0.4265,0.4271,0.4246,0.4249,0.4251,0.4419,0,0.3724,0.3698,0.3717,0.3717,0.3711,0.3764,0.3788,0.3834,0.3877,0.3925,0.3991,0.4043,0.4051,0.4081,0.4133,0.4227,0.4284,0.4198,0.4358,0.4364,0.4247,0.4284,0.4038,0.4154,0.4435,0.4438,0.444,0,0.3661,0.3661,0.3645,0.3679,0.3682,0.3692,0.3749,0.3781,0.3872,0.3909,0.3982,0.4043,0.4149,0.4139,0.4309,0.4256,0.4327,0.4388,0.4395,0.4293,0.4265,0.4174,0.4173,0.4074,0.4465,0.4463,0.4461,0,0.3592,0.3606,0.3592,0.3602,0.3645,0.3659,0.3694,0.3768,0.3807,0.3917,0.3966,0.4082,0.4148,0.4267,0.4381,0.4365,0.4559,0.4549,0.4506,0.4499,0.4329,0.43,0.4248,0.4668,0.4667,0.4667,0.4666,0,0.3524,0.3512,0.3557,0.3547,0.3551,0.3606,0.3627,0.3684,0.3777,0.3827,0.3955,0.4015,0.4183,0.4305,0.4411,0.45,0.4584,0.4525,0.4533,0.4315,0.4285,0.4221,0.4197,0.4673,0.4672,0.467,0.4669,0,0.3425,0.3451,0.3445,0.3494,0.3507,0.3511,0.3582,0.3609,0.3709,0.379,0.3838,0.3995,0.4146,0.4304,0.4495,0.451,0.4495,0.4636,0.4366,0.4336,0.4159,0.4143,0.401,0.3909,0.4627,0.4624,0.4622,0,0.3354,0.3342,0.3392,0.3397,0.3412,0.3436,0.3455,0.3555,0.3597,0.3762,0.3798,0.397,0.4055,0.428,0.434,0.449,0.4418,0.4339,0.4245,0.4119,0.4111,0.3986,0.3904,0.404,0.4033,0.4028,0.4024,0,0.3245,0.3273,0.3282,0.3297,0.3313,0.3337,0.3378,0.3402,0.3529,0.3598,0.3692,0.3782,0.3954,0.3962,0.4121,0.4179,0.4086,0.4231,0.4173,0.3701,0.3493,0.3407,0.3983,0.3977,0.3981,0.3985,0.3987,0.3989,0.3165,0.3158,0.3184,0.319,0.3213,0.3226,0.3199,0.3264,0.3305,0.3364,0.3508,0.3533,0.3629,0.379,0.3835,0.3707,0.3775,0.3613,0.3632,0.354,0.3326,0.3789,0.373,0.3733,0.3736,0.3738,0.3741,0,0.3062,0.3072,0.3076,0.308,0.3063,0.3115,0.3132,0.3084,0.3073,0.3139,0.3179,0.3178,0.3176,0.3263,0.3233,0.314,0.3021,0.3067,0.2849,0.2825,0.33,0.3153,0.2872,0.2872,0.2873,0.2873,0.2873,0.2873,0.3004,0.2976,0.2988,0.293,0.2929,0.2861,0.2843,0.2792,0.2784,0.27,0.2646,0.2705,0.2865,0.2883,0.2784,0.2717,0.2578,0.2397,0.2507,0.2851,0.2903,0.2953,0.2807,0.2459,0.2458,0.1855,0.1851,0.1848]},{"header":{"parameterUnit":"m.s-1","parameterCategory":2,"la1":30.2991,"la2":30.254,"lo1":-89.0895,"lo2":-89.0444,"dy":0.0017,"dx":0.0017,"nx":28,"ny":28,"refTime":"2025-06-05T09:00:00:Z","depth":"0","parameterNumber":3,"parameterNumberName":"V-component_of_CURRENTS"},"data":[0,0,0,0,0,0,0,0,0,0,0,0,0,0,0,0,0,0,0,0,0,0,0,0,0,0,0,0,0,0,0,0,0,0,0,0,0,0,0,0,0,0,0,0,0,0,0,0,0,0,0,0,0,0,0,0,0,0,0.0532,0.0532,0,0.052,0.0519,0.0519,0.0499,0.0499,0.0499,0.0498,0.0417,0.0415,0.0413,0,0,0,0,0,0,0,0,0,0,0,0,0,0.0497,0.0498,0.0532,0.0532,0.0532,0.052,0.0519,0.0519,0.0499,0.0499,0.0499,0.0498,0.0417,0.0415,0.0413,0,0,0,0,0,0,0,0,0,0,0,0,0,0.05,0.0498,0.0532,0.0521,0.052,0.052,0.0519,0.0519,0.0499,0.0499,0.0498,0.0498,0.0418,0.0415,0.0412,0.0403,0,0,0.0404,0.0402,0,0,0,0,0,0,0,0,0.05,0.0502,0.0523,0.0522,0.0521,0.0511,0.0477,0.0477,0.0499,0.0507,0.0498,0.0498,0.0443,0.0438,0.0436,0.04,0.0396,0.0403,0.0402,0.04,0.04,0,0,0,0,0,0,0,0.05,0.0502,0.0526,0.0523,0.0522,0.0502,0.0503,0.0477,0.0475,0.0506,0.0505,0.0504,0.0441,0.0439,0.0434,0.0395,0.0403,0.0401,0.0399,0.0398,0.0349,0.0349,0,0,0,0,0,0,0.0506,0.0502,0.0527,0.0526,0.051,0.0504,0.0504,0.0514,0.0477,0.0472,0.0505,0.0504,0.0444,0.0437,0.0431,0.0432,0.04,0.0398,0.0396,0.0348,0.0349,0.0349,0,0,0,0,0,0,0.0506,0.0509,0.0527,0.0513,0.0515,0.0505,0.0516,0.0514,0.0515,0.0477,0.047,0.0508,0.0444,0.0435,0.0419,0.0428,0.0396,0.0394,0.0348,0.0348,0.0349,0.0425,0,0,0,0,0,0,0.0505,0.0509,0.0515,0.0514,0.0516,0.0536,0.0517,0.0514,0.0516,0.0514,0.0478,0.047,0.0443,0.0423,0.0416,0.0424,0.0392,0.0347,0.0348,0.0349,0.0422,0.0429,0.0434,0,0,0,0,0,0.0504,0.0513,0.0515,0.0518,0.0526,0.0537,0.0536,0.0526,0.0516,0.0524,0.0501,0.0471,0.0422,0.0422,0.0413,0.042,0.0347,0.0348,0.0349,0.042,0.0427,0.0434,0,0,0,0,0,0,0.0495,0.0513,0.0515,0.0528,0.0537,0.0534,0.0536,0.0532,0.0521,0.0515,0.0479,0.047,0.0459,0.0428,0.0428,0.0407,0.0378,0.0378,0.0435,0.0442,0.0448,0.0464,0.0389,0,0,0,0,0,0.05,0.0514,0.0526,0.0536,0.0544,0.0543,0.0544,0.0542,0.0533,0.0528,0.0505,0.0476,0.0456,0.0441,0.0418,0.0406,0.0385,0.0403,0.0409,0.0414,0.0421,0.04,0.0405,0.0352,0.0352,0.0352,0,0,0.0496,0.0508,0.0514,0.0535,0.054,0.0564,0.0543,0.0552,0.0567,0.0519,0.0525,0.0497,0.0459,0.0451,0.0442,0.0425,0.042,0.0415,0.042,0.0424,0.0402,0.0407,0.0412,0.0353,0.0353,0.0353,0,0,0.0506,0.0514,0.0535,0.0552,0.0569,0.0573,0.0581,0.0587,0.0585,0.0588,0.0559,0.0541,0.0508,0.0488,0.0471,0.0493,0.0455,0.048,0.0518,0.0499,0.0503,0.0507,0.05,0.0502,0.0479,0.0479,0.0479,0,0.0502,0.0537,0.0541,0.0572,0.0591,0.0584,0.0617,0.0617,0.0615,0.0617,0.0598,0.0562,0.0528,0.0521,0.0528,0.0507,0.0493,0.0498,0.0508,0.0511,0.0513,0.0505,0.0506,0.0483,0.0482,0.0482,0.0482,0,0.0534,0.0567,0.0582,0.0625,0.0642,0.0668,0.0679,0.0691,0.0685,0.0678,0.067,0.0629,0.0606,0.0592,0.0566,0.0566,0.0551,0.0522,0.0495,0.0523,0.0513,0.0513,0.0488,0.0487,0.0486,0.0485,0,0,0.0522,0.0593,0.06,0.0639,0.0677,0.0698,0.0728,0.0753,0.0771,0.0751,0.0773,0.0726,0.0696,0.0675,0.0637,0.0618,0.0625,0.0582,0.0579,0.0584,0.0593,0.0565,0.0562,0.0598,0.0598,0.0598,0.0584,0,0.0551,0.0626,0.0649,0.0719,0.0764,0.0779,0.0811,0.0827,0.0824,0.084,0.0796,0.0795,0.0729,0.0726,0.0693,0.0653,0.0627,0.0632,0.0557,0.0555,0.0533,0.0562,0.0522,0.0505,0.0584,0.0584,0.0584,0,0.0585,0.0634,0.0711,0.079,0.0809,0.0842,0.0896,0.092,0.0932,0.0932,0.0913,0.0883,0.0863,0.0801,0.0729,0.0737,0.0668,0.0625,0.0623,0.0569,0.0527,0.0485,0.0502,0.039,0.0584,0.0584,0.0584,0,0.0595,0.068,0.0746,0.0774,0.0852,0.0886,0.0918,0.0943,0.0976,0.0993,0.1025,0.0971,0.0971,0.0881,0.0787,0.0762,0.0712,0.0662,0.0568,0.0565,0.0503,0.0495,0.0408,0.0598,0.0598,0.0598,0.0598,0,0.0631,0.0684,0.0757,0.0798,0.0871,0.0909,0.0973,0.1,0.1045,0.1105,0.1068,0.1109,0.0991,0.0949,0.0833,0.0717,0.0741,0.0585,0.0561,0.0529,0.0524,0.0398,0.0321,0.0598,0.0598,0.0598,0.0598,0,0.0643,0.0692,0.0773,0.0857,0.0885,0.0934,0.1023,0.1068,0.1111,0.1198,0.122,0.1222,0.1181,0.1057,0.0932,0.079,0.0598,0.0619,0.06,0.0572,0.0362,0.029,0.0179,0.0128,0.0512,0.0512,0.0511,0,0.0661,0.0704,0.0807,0.0854,0.0895,0.0971,0.1028,0.1092,0.1153,0.1274,0.1329,0.133,0.1358,0.117,0.0923,0.0725,0.0595,0.0531,0.0459,0.0355,0.0257,0.0224,0.0187,0.0412,0.0411,0.041,0.0409,0,0.069,0.0721,0.0787,0.0878,0.0949,0.1037,0.1129,0.1201,0.1302,0.1415,0.1547,0.1592,0.1412,0.12,0.0907,0.0744,0.0435,0.0499,0.039,0.0173,0.0131,0.007,0.0429,0.0398,0.0399,0.04,0.0401,0.0401,0.0702,0.0744,0.082,0.0908,0.0993,0.1105,0.1193,0.1326,0.1481,0.1682,0.1698,0.1793,0.1455,0.1059,0.0813,0.0341,0.0366,0.0191,0.0117,0.0098,0.003,0.0377,0.0316,0.0317,0.0317,0.0318,0.0318,0,0.0708,0.076,0.0842,0.0956,0.1047,0.1093,0.1262,0.1388,0.1611,0.1783,0.1928,0.1802,0.1392,0.0957,0.0328,0.0019,-0.0086,-0.0138,-0.0207,-0.0224,0.0079,0.0056,-0.0062,-0.0062,-0.0062,-0.0062,-0.0062,-0.0062,0.0718,0.0778,0.0823,0.0971,0.1058,0.1203,0.1311,0.1543,0.1705,0.1936,0.1986,0.2013,0.1678,0.059,-0.0117,-0.0283,-0.046,-0.0537,-0.0582,-0.04,-0.0375,-0.0351,-0.0389,-0.0598,-0.0599,-0.085,-0.0853,-0.0855]}],[{"header":{"parameterUnit":"m.s-1","parameterCategory":2,"la1":30.2991,"la2":30.254,"lo1":-89.0895,"lo2":-89.0444,"dy":0.0017,"dx":0.0017,"nx":28,"ny":28,"refTime":"2025-06-05T09:00:00:Z","depth":"2","parameterNumber":2,"parameterNumberName":"U-component_of_CURRENTS"},"data":[0,0,0,0,0,0,0,0,0,0,0,0,0,0,0,0,0,0,0,0,0,0,0,0,0,0,0,0,0,0,0,0,0,0,0,0,0,0,0,0,0,0,0,0,0,0,0,0,0,0,0,0,0,0,0,0,0,0,0.3078,0.3077,0,0.2945,0.2944,0.2942,0.2936,0.2938,0.294,0.2941,0.2938,0.2936,0.2935,0,0,0,0,0,0,0,0,0,0,0,0,0,0.2932,0.2937,0.3079,0.3077,0.3075,0.2946,0.2944,0.2942,0.2936,0.2938,0.294,0.2942,0.2939,0.2937,0.2935,0,0,0,0,0,0,0,0,0,0,0,0,0,0.2917,0.2939,0.3079,0.3058,0.3055,0.2946,0.2944,0.2941,0.2936,0.2938,0.2941,0.2943,0.2939,0.2937,0.2934,0.2869,0,0,0.2927,0.2926,0,0,0,0,0,0,0,0,0.2919,0.2923,0.3062,0.3059,0.3055,0.2961,0.289,0.2924,0.2935,0.298,0.2941,0.2944,0.2956,0.2953,0.2919,0.2869,0.2869,0.2927,0.2925,0.2924,0.2923,0,0,0,0,0,0,0,0.292,0.2926,0.3025,0.306,0.3056,0.2919,0.2923,0.2894,0.2957,0.2976,0.2976,0.2961,0.2956,0.2921,0.2919,0.2869,0.2927,0.2925,0.2923,0.2922,0.2998,0.3001,0,0,0,0,0,0,0.2958,0.293,0.3029,0.3021,0.2993,0.2921,0.2926,0.2988,0.2955,0.2951,0.2959,0.2962,0.2924,0.2922,0.2919,0.3016,0.2924,0.2922,0.292,0.2994,0.2999,0.3002,0,0,0,0,0,0,0.2956,0.2971,0.3034,0.2967,0.2966,0.2925,0.2991,0.2984,0.3033,0.2941,0.2941,0.3026,0.2926,0.2923,0.2968,0.301,0.2921,0.2918,0.299,0.2996,0.3,0.3098,0,0,0,0,0,0,0.2954,0.2973,0.3057,0.2973,0.2972,0.3037,0.2989,0.298,0.3015,0.3019,0.2996,0.2993,0.2928,0.2972,0.2966,0.3005,0.2917,0.2986,0.2993,0.2999,0.309,0.3106,0.3119,0,0,0,0,0,0.295,0.3041,0.3064,0.3075,0.3084,0.304,0.3028,0.2999,0.3018,0.3052,0.3042,0.2998,0.301,0.2973,0.2964,0.3004,0.2983,0.2991,0.2998,0.3084,0.3102,0.3118,0,0,0,0,0,0,0.2993,0.3046,0.3069,0.3171,0.3144,0.3041,0.3059,0.3053,0.3066,0.3087,0.3029,0.3024,0.308,0.3045,0.3006,0.3053,0.2995,0.3001,0.3063,0.308,0.3094,0.31,0.2914,0,0,0,0,0,0.3051,0.3169,0.3137,0.3224,0.3216,0.3161,0.3153,0.3136,0.3112,0.3123,0.3101,0.3092,0.3087,0.3094,0.3075,0.3095,0.3101,0.3125,0.314,0.3152,0.3157,0.3227,0.3247,0.3028,0.3028,0.3028,0,0,0.3083,0.3134,0.3195,0.3246,0.3215,0.3194,0.3165,0.3172,0.3169,0.3119,0.3145,0.3146,0.311,0.3127,0.315,0.3113,0.3222,0.3162,0.3172,0.317,0.3237,0.3258,0.3277,0.3033,0.3032,0.3032,0,0,0.314,0.3255,0.3331,0.3322,0.3318,0.3276,0.3309,0.3257,0.3265,0.3281,0.3252,0.3292,0.3272,0.3243,0.3228,0.3322,0.3302,0.334,0.3402,0.3471,0.3489,0.3505,0.355,0.3569,0.334,0.334,0.334,0,0.3171,0.3269,0.333,0.3349,0.3332,0.3331,0.332,0.3316,0.3294,0.3304,0.332,0.3331,0.3314,0.3325,0.3361,0.3349,0.3391,0.3328,0.3488,0.3503,0.3518,0.356,0.358,0.3345,0.3345,0.3344,0.3344,0,0.3233,0.3303,0.3326,0.3381,0.338,0.3378,0.3354,0.3391,0.3415,0.3393,0.3454,0.344,0.3451,0.3462,0.3435,0.3528,0.3527,0.3502,0.3435,0.3545,0.3584,0.3602,0.3353,0.3351,0.335,0.3348,0,0,0.3305,0.3362,0.3374,0.3369,0.3393,0.3373,0.3413,0.3411,0.3436,0.3475,0.3505,0.3534,0.3567,0.3558,0.3553,0.3612,0.3753,0.362,0.3621,0.3651,0.392,0.3655,0.3649,0.3776,0.378,0.3783,0.3909,0,0.3316,0.3349,0.3385,0.338,0.3364,0.3385,0.3399,0.342,0.3455,0.3495,0.3539,0.3572,0.3591,0.3622,0.3696,0.3734,0.3808,0.3721,0.3822,0.3824,0.3562,0.3662,0.3417,0.3485,0.3926,0.393,0.3932,0,0.3338,0.3364,0.3359,0.3354,0.335,0.3357,0.3389,0.3411,0.348,0.3513,0.3598,0.3632,0.3735,0.3735,0.3896,0.3856,0.3916,0.3944,0.3949,0.3673,0.3591,0.3447,0.3501,0.3962,0.396,0.3957,0.3955,0,0.3306,0.3329,0.3327,0.3324,0.333,0.3348,0.3376,0.3429,0.3453,0.3558,0.3605,0.3714,0.3795,0.3903,0.3993,0.3977,0.4152,0.4118,0.3933,0.3915,0.3703,0.3657,0.4245,0.4245,0.4245,0.4244,0.4244,0,0.3278,0.327,0.3317,0.3304,0.3305,0.3336,0.3359,0.3406,0.3484,0.3518,0.3639,0.3685,0.3858,0.3964,0.4033,0.4034,0.4199,0.3956,0.3932,0.3727,0.3684,0.4085,0.4065,0.4249,0.4248,0.4247,0.4246,0,0.3212,0.3244,0.323,0.3265,0.3278,0.3291,0.3345,0.336,0.3469,0.3534,0.3583,0.3721,0.3839,0.3963,0.4116,0.405,0.4083,0.4046,0.3772,0.3707,0.3795,0.3779,0.384,0.3831,0.3824,0.3819,0.3814,0,0.3174,0.3165,0.32,0.3195,0.321,0.3244,0.3253,0.3345,0.3366,0.3523,0.3536,0.3691,0.3697,0.3795,0.3767,0.3794,0.3964,0.3532,0.3405,0.3784,0.3756,0.3751,0.3745,0.3207,0.3198,0.319,0.3184,0,0.3088,0.3113,0.3098,0.3108,0.3116,0.3119,0.3158,0.3158,0.3273,0.3324,0.3357,0.3377,0.3451,0.331,0.3331,0.3317,0.3488,0.3358,0.39,0.3285,0.3179,0.3153,0.3171,0.3114,0.3121,0.3126,0.313,0.3133,0.302,0.2995,0.2992,0.2985,0.3001,0.2979,0.2935,0.296,0.296,0.2968,0.3069,0.3,0.3031,0.2851,0.2799,0.2787,0.2994,0.2897,0.2927,0.2964,0.2806,0.2686,0.2502,0.2505,0.2508,0.251,0.2513,0,0.2903,0.2889,0.2869,0.284,0.2805,0.2882,0.2842,0.2734,0.2666,0.2686,0.2646,0.238,0.227,0.2367,0.2207,0.2145,0.2203,0.2094,0.2195,0.2263,0.2324,0.2138,0.1655,0.1652,0.165,0.1647,0,0,0.2828,0.2756,0.2744,0.2653,0.266,0.256,0.2517,0.2368,0.23,0.2126,0.2067,0.2121,0.2226,0.1888,0.1858,0.1741,0.1993,0.1676,0.2368,0.2554,0.2611,0.2789,0.2576,0,0,0,0,0]},{"header":{"parameterUnit":"m.s-1","parameterCategory":2,"la1":30.2991,"la2":30.254,"lo1":-89.0895,"lo2":-89.0444,"dy":0.0017,"dx":0.0017,"nx":28,"ny":28,"refTime":"2025-06-05T09:00:00:Z","depth":"2","parameterNumber":3,"parameterNumberName":"V-component_of_CURRENTS"},"data":[0,0,0,0,0,0,0,0,0,0,0,0,0,0,0,0,0,0,0,0,0,0,0,0,0,0,0,0,0,0,0,0,0,0,0,0,0,0,0,0,0,0,0,0,0,0,0,0,0,0,0,0,0,0,0,0,0,0,0.0028,0.0027,0,-0.0064,-0.0065,-0.0066,-0.0107,-0.0106,-0.0106,-0.0106,-0.0244,-0.0248,-0.0251,0,0,0,0,0,0,0,0,0,0,0,0,0,0.0015,0.0016,0.0028,0.0027,0.0026,-0.0064,-0.0065,-0.0067,-0.0107,-0.0106,-0.0106,-0.0106,-0.0243,-0.0247,-0.0252,0,0,0,0,0,0,0,0,0,0,0,0,0,-0.0017,0.0017,0.0028,-0.0006,-0.001,-0.0064,-0.0065,-0.0067,-0.0107,-0.0106,-0.0106,-0.0106,-0.0242,-0.0247,-0.0252,-0.0288,0,0,-0.0269,-0.0272,0,0,0,0,0,0,0,0,-0.0015,-0.0016,0.0,-0.0004,-0.0008,-0.0075,-0.0121,-0.0144,-0.0107,-0.0069,-0.0106,-0.0106,-0.0193,-0.0202,-0.0218,-0.0295,-0.0301,-0.027,-0.0273,-0.0276,-0.0277,0,0,0,0,0,0,0,-0.0013,-0.0014,-0.0008,-0.0001,-0.0006,-0.007,-0.0073,-0.0126,-0.013,-0.0072,-0.0076,-0.0087,-0.0195,-0.0212,-0.0221,-0.0303,-0.027,-0.0275,-0.0278,-0.028,-0.039,-0.039,0,0,0,0,0,0,0.0005,-0.001,-0.0005,-0.001,-0.0013,-0.0069,-0.0073,-0.0053,-0.0129,-0.014,-0.0087,-0.0089,-0.0203,-0.0215,-0.0226,-0.0222,-0.0276,-0.0281,-0.0284,-0.0391,-0.039,-0.039,0,0,0,0,0,0,0.0006,0.0008,-0.0001,-0.0016,-0.0021,-0.0068,-0.0046,-0.0055,-0.005,-0.014,-0.0152,-0.0071,-0.0203,-0.0218,-0.0248,-0.023,-0.0283,-0.0289,-0.0391,-0.039,-0.039,-0.0247,0,0,0,0,0,0,0.0007,0.001,0.0036,-0.0013,-0.002,-0.0007,-0.0047,-0.0056,-0.0059,-0.0061,-0.0131,-0.0145,-0.0204,-0.0239,-0.0253,-0.0238,-0.0293,-0.0392,-0.0391,-0.039,-0.0252,-0.0241,-0.0232,0,0,0,0,0,0.0007,0.0041,0.0039,0.0039,0.0017,-0.0006,-0.0014,-0.0049,-0.0058,-0.0045,-0.0092,-0.0141,-0.0245,-0.0242,-0.0259,-0.0246,-0.0392,-0.0391,-0.039,-0.0257,-0.0244,-0.0233,0,0,0,0,0,0,0.0029,0.0038,0.0035,0.0066,0.0045,-0.0012,-0.001,-0.0029,-0.0055,-0.0052,-0.0132,-0.0148,-0.0168,-0.0229,-0.0224,-0.0278,-0.0329,-0.0331,-0.0222,-0.021,-0.02,-0.0179,-0.0298,0,0,0,0,0,0.0053,0.0098,0.007,0.0096,0.009,0.0049,0.0037,0.0021,-0.0016,-0.0026,-0.0075,-0.0133,-0.0183,-0.0209,-0.0261,-0.0288,-0.0322,-0.0295,-0.0284,-0.0275,-0.0272,-0.0294,-0.0285,-0.0386,-0.0386,-0.0386,0,0,0.006,0.0077,0.0095,0.0106,0.0085,0.0087,0.0044,0.0043,0.0044,-0.0039,-0.0046,-0.0094,-0.0181,-0.0206,-0.0222,-0.0251,-0.0261,-0.0274,-0.0265,-0.0267,-0.0292,-0.0282,-0.0273,-0.0386,-0.0386,-0.0386,0,0,0.0098,0.0122,0.0166,0.016,0.0154,0.0132,0.0144,0.0111,0.0098,0.0086,0.0024,-0.0005,-0.0081,-0.0135,-0.0176,-0.0146,-0.0202,-0.0166,-0.0103,-0.0124,-0.0115,-0.0108,-0.0112,-0.0106,-0.0166,-0.0166,-0.0166,0,0.0105,0.0163,0.0167,0.0195,0.019,0.0163,0.0182,0.0163,0.0126,0.0114,0.0104,0.0011,-0.005,-0.0096,-0.0083,-0.0122,-0.0135,-0.0135,-0.0107,-0.0101,-0.0096,-0.0102,-0.0098,-0.0159,-0.016,-0.0161,-0.0161,0,0.0165,0.0205,0.0223,0.0264,0.0263,0.0276,0.025,0.0259,0.0247,0.0213,0.0188,0.0118,0.0066,0.0038,-0.0013,-0.0017,-0.0036,-0.0081,-0.0127,-0.0077,-0.0087,-0.0085,-0.0149,-0.0152,-0.0154,-0.0155,0,0,0.0205,0.0257,0.0269,0.0288,0.0303,0.0305,0.0323,0.0315,0.0326,0.0295,0.0299,0.0221,0.0199,0.0151,0.0089,0.0062,0.0097,0.0018,0.0014,0.0035,0.0075,0.002,0.0017,0.0067,0.0067,0.0068,0.0064,0,0.0249,0.0321,0.0333,0.0379,0.0403,0.0389,0.0402,0.0394,0.0382,0.0383,0.0317,0.0298,0.0234,0.0233,0.02,0.0127,0.0105,0.0103,0.0004,0.0002,-0.0037,0.0017,0.0033,0.0027,0.0066,0.0066,0.0066,0,0.0312,0.0354,0.0413,0.0443,0.0451,0.0474,0.0502,0.0512,0.0497,0.0487,0.0469,0.0422,0.0395,0.0334,0.0253,0.0263,0.0186,0.0119,0.0116,0.0013,-0.005,-0.0027,0.0028,0.0069,0.0069,0.0069,0.0068,0,0.0353,0.0408,0.0462,0.047,0.05,0.0527,0.055,0.0551,0.0568,0.0575,0.0604,0.054,0.0549,0.0447,0.0337,0.0306,0.0245,0.0177,0.0048,0.0044,0.0007,-0.0002,0.0109,0.0109,0.0109,0.0109,0.0109,0,0.0401,0.044,0.049,0.0515,0.0572,0.0583,0.0639,0.065,0.0681,0.0729,0.0679,0.0717,0.0582,0.053,0.0394,0.0256,0.0298,0.0074,0.004,0.0057,0.0053,0.0035,0.0026,0.0109,0.0109,0.0109,0.0109,0,0.0433,0.0467,0.0521,0.0573,0.0595,0.0643,0.0709,0.0742,0.0786,0.0866,0.0888,0.0871,0.0821,0.0665,0.0512,0.0347,0.0198,0.0125,0.0165,0.0133,-0.0007,-0.0008,-0.0019,-0.0021,-0.0023,-0.0024,-0.0025,0,0.0458,0.0496,0.0566,0.0599,0.0627,0.0699,0.0743,0.0792,0.0844,0.0968,0.1012,0.1007,0.0995,0.0757,0.0482,0.0237,0.0209,0.0066,-0.0024,0.0013,-0.0019,-0.0018,-0.0017,0.0002,0.0001,0.0,-0.0,0,0.0489,0.0515,0.0549,0.063,0.0687,0.0751,0.0836,0.0902,0.0998,0.1112,0.124,0.1252,0.1026,0.0785,0.0435,0.0255,0.0103,0.0038,0.0094,0.0016,0.0027,-0.0003,-0.0001,-0.0006,-0.0006,-0.0005,-0.0005,-0.0005,0.0501,0.0523,0.0573,0.0645,0.0717,0.0814,0.0902,0.1023,0.1176,0.136,0.1353,0.1383,0.1087,0.0623,0.0345,0.0045,0.0034,-0.0091,-0.0086,-0.0081,-0.0094,-0.0088,-0.0144,-0.0144,-0.0144,-0.0144,-0.0144,0,0.0488,0.0523,0.0585,0.0669,0.0753,0.0807,0.0964,0.1089,0.1328,0.143,0.1537,0.126,0.0973,0.0667,0.0201,-0.0103,-0.0115,-0.0172,-0.0114,-0.0107,-0.0101,-0.0113,-0.0169,-0.017,-0.017,-0.0171,0,0,0.0478,0.0506,0.0539,0.0678,0.0767,0.0926,0.1045,0.1269,0.1396,0.1538,0.1541,0.1426,0.1043,0.0701,0.0332,0.0096,0.0059,0.004,0.0085,0.0204,0.0214,-0.0035,-0.0045,0,0,0,0,0]}],[{"header":{"parameterUnit":"m.s-1","parameterCategory":2,"la1":30.2991,"la2":30.254,"lo1":-89.0895,"lo2":-89.0444,"dy":0.0017,"dx":0.0017,"nx":28,"ny":28,"refTime":"2025-06-05T09:00:00:Z","depth":"4","parameterNumber":2,"parameterNumberName":"U-component_of_CURRENTS"},"data":[0,0,0,0,0,0,0,0,0,0,0,0,0,0,0,0,0,0,0,0,0,0,0,0,0,0,0,0,0,0,0,0,0,0,0,0,0,0,0,0,0,0,0,0,0,0,0,0,0,0,0,0,0,0,0,0,0,0,0.0574,0.0576,0,0.0726,0.0727,0.0729,0.081,0.0811,0.0812,0.0812,0.0861,0.0861,0.0862,0,0,0,0,0,0,0,0,0,0,0,0,0,0.0503,0.0502,0.0574,0.0576,0.0579,0.0726,0.0727,0.0729,0.081,0.0811,0.0812,0.0812,0.086,0.0861,0.0862,0,0,0,0,0,0,0,0,0,0,0,0,0,0.0576,0.0502,0.0574,0.0641,0.0649,0.0725,0.0727,0.0729,0.081,0.0811,0.0812,0.0813,0.086,0.0861,0.0862,0.0848,0,0,0.0865,0.0866,0,0,0,0,0,0,0,0,0.0572,0.0578,0.0629,0.0637,0.0646,0.0755,0.0721,0.0766,0.081,0.0743,0.0812,0.0813,0.0818,0.0823,0.0843,0.085,0.0852,0.0865,0.0866,0.0866,0.0867,0,0,0,0,0,0,0,0.0566,0.0573,0.0629,0.0631,0.0642,0.0715,0.0725,0.073,0.0767,0.0749,0.0757,0.0782,0.0822,0.0842,0.0845,0.0853,0.0865,0.0866,0.0867,0.0867,0.0985,0.0987,0,0,0,0,0,0,0.0549,0.0567,0.0624,0.0634,0.0617,0.0715,0.0726,0.0714,0.077,0.0781,0.0781,0.0785,0.084,0.0843,0.0846,0.0946,0.0866,0.0867,0.0868,0.0982,0.0985,0.0988,0,0,0,0,0,0,0.0547,0.0551,0.0618,0.0611,0.0625,0.0715,0.0702,0.0717,0.0781,0.0796,0.0805,0.0835,0.0841,0.0845,0.0883,0.0944,0.0868,0.0869,0.0979,0.0983,0.0987,0.1072,0,0,0,0,0,0,0.0543,0.0548,0.0578,0.0608,0.0625,0.0676,0.0702,0.0719,0.0795,0.0803,0.0844,0.0848,0.0842,0.0882,0.0884,0.0944,0.0869,0.0976,0.0981,0.0985,0.1066,0.1079,0.1089,0,0,0,0,0,0.0539,0.0558,0.0576,0.0587,0.0645,0.0678,0.0693,0.0758,0.0797,0.082,0.0856,0.0849,0.0915,0.0884,0.0886,0.0948,0.0974,0.098,0.0985,0.1061,0.1076,0.1089,0,0,0,0,0,0,0.0531,0.057,0.059,0.0618,0.0655,0.0694,0.0752,0.0782,0.0833,0.0861,0.0864,0.0869,0.0927,0.0924,0.089,0.0999,0.095,0.0956,0.1007,0.1021,0.1032,0.1016,0.087,0,0,0,0,0,0.0543,0.0572,0.0605,0.0629,0.0659,0.0713,0.0755,0.0788,0.0824,0.0852,0.0876,0.0915,0.0946,0.0973,0.0987,0.1038,0.1015,0.1087,0.1098,0.1108,0.1098,0.1087,0.1095,0.1007,0.1007,0.1007,0,0,0.0555,0.0575,0.0599,0.0633,0.068,0.0699,0.074,0.0806,0.0848,0.0845,0.0923,0.0945,0.0965,0.1025,0.1054,0.1036,0.1133,0.1115,0.1123,0.1108,0.1094,0.1102,0.1109,0.1011,0.101,0.1009,0,0,0.0568,0.0603,0.0637,0.0667,0.0736,0.0741,0.0764,0.0822,0.0895,0.0963,0.0974,0.1023,0.1087,0.11,0.1119,0.12,0.1183,0.1236,0.1291,0.1282,0.1288,0.1293,0.1317,0.1324,0.1254,0.1254,0.1254,0,0.06,0.0609,0.0653,0.0683,0.0732,0.0753,0.0796,0.0843,0.0908,0.0978,0.1004,0.1108,0.112,0.118,0.122,0.1224,0.1228,0.1237,0.1294,0.1298,0.1301,0.1324,0.133,0.1259,0.1258,0.1258,0.1257,0,0.0611,0.0648,0.0672,0.07,0.075,0.0787,0.0848,0.0901,0.0986,0.1043,0.1166,0.1192,0.1257,0.1283,0.1284,0.1334,0.1335,0.1297,0.1251,0.1315,0.1336,0.1341,0.1266,0.1264,0.1262,0.1261,0,0,0.0607,0.0675,0.0683,0.0725,0.0779,0.0807,0.0885,0.0966,0.1032,0.1132,0.1241,0.1317,0.1358,0.138,0.1393,0.1391,0.1437,0.1373,0.137,0.1384,0.1453,0.1366,0.1362,0.1413,0.1413,0.1413,0.1473,0,0.0614,0.0667,0.0705,0.0756,0.0802,0.0863,0.0926,0.1014,0.1109,0.1196,0.1293,0.1377,0.1393,0.1442,0.1452,0.142,0.1447,0.1426,0.1399,0.1399,0.13,0.1362,0.1415,0.1475,0.1476,0.1477,0.1477,0,0.0611,0.0652,0.073,0.0823,0.0855,0.0877,0.0997,0.1066,0.1184,0.1293,0.1396,0.1447,0.1503,0.1493,0.1508,0.1501,0.15,0.1473,0.1473,0.1353,0.1317,0.1389,0.1484,0.1484,0.1483,0.1483,0.1482,0,0.0589,0.0667,0.0735,0.0767,0.086,0.0935,0.0981,0.1106,0.1199,0.1341,0.1403,0.1497,0.1556,0.1545,0.1525,0.1531,0.1502,0.1498,0.1429,0.1425,0.1445,0.1438,0.1509,0.1509,0.1509,0.1509,0.1509,0,0.0578,0.0624,0.0728,0.0763,0.084,0.0948,0.1043,0.1121,0.1253,0.1339,0.1447,0.1502,0.1568,0.1565,0.1538,0.149,0.1528,0.1443,0.1425,0.149,0.1487,0.1451,0.1443,0.1511,0.1511,0.151,0.151,0,0.0548,0.0608,0.0679,0.0799,0.0834,0.0903,0.1038,0.1098,0.1237,0.1341,0.1392,0.1526,0.155,0.1558,0.1548,0.1508,0.1448,0.1423,0.1512,0.1497,0.1395,0.1392,0.139,0.1387,0.1385,0.1383,0.1381,0,0.0527,0.0569,0.0688,0.072,0.0775,0.0877,0.0935,0.1085,0.1159,0.1327,0.1362,0.1456,0.1523,0.1451,0.1465,0.143,0.1407,0.1393,0.139,0.1395,0.1379,0.138,0.1379,0.1377,0.1377,0.1376,0.1375,0,0.0491,0.0548,0.0604,0.0677,0.0738,0.0792,0.0896,0.0943,0.1122,0.1232,0.1334,0.1371,0.141,0.1427,0.1405,0.1362,0.1399,0.1369,0.1375,0.1372,0.138,0.1366,0.1369,0.1367,0.1368,0.1369,0.137,0,0.0461,0.0477,0.0557,0.0614,0.0666,0.07,0.0768,0.0872,0.0965,0.1181,0.1203,0.1295,0.1413,0.139,0.1337,0.1314,0.1325,0.129,0.13,0.131,0.1247,0.1243,0.1176,0,0,0,0,0,0.043,0.0437,0.0481,0.0526,0.0574,0.0608,0.0731,0.0814,0.0977,0.1033,0.1139,0.1176,0.1214,0.1249,0.1212,0.1268,0.1286,0.1216,0.1241,0.1322,0.1331,0.1259,0,0,0,0,0,0,0.0403,0.0438,0.0456,0.044,0.0449,0.0491,0.0565,0.0682,0.0742,0.0923,0.0949,0.1089,0.1123,0.1207,0.1176,0.1185,0.1178,0.1282,0.1279,0.1316,0.1325,0.1332,0.1262,0,0,0,0,0]},{"header":{"parameterUnit":"m.s-1","parameterCategory":2,"la1":30.2991,"la2":30.254,"lo1":-89.0895,"lo2":-89.0444,"dy":0.0017,"dx":0.0017,"nx":28,"ny":28,"refTime":"2025-06-05T09:00:00:Z","depth":"4","parameterNumber":3,"parameterNumberName":"V-component_of_CURRENTS"},"data":[0,0,0,0,0,0,0,0,0,0,0,0,0,0,0,0,0,0,0,0,0,0,0,0,0,0,0,0,0,0,0,0,0,0,0,0,0,0,0,0,0,0,0,0,0,0,0,0,0,0,0,0,0,0,0,0,0,0,0.0068,0.0067,0,0.0008,0.0008,0.0007,-0.0014,-0.0014,-0.0014,-0.0014,-0.0086,-0.0088,-0.009,0,0,0,0,0,0,0,0,0,0,0,0,0,0.0112,0.0112,0.0068,0.0067,0.0066,0.0008,0.0008,0.0007,-0.0014,-0.0014,-0.0014,-0.0014,-0.0086,-0.0088,-0.009,0,0,0,0,0,0,0,0,0,0,0,0,0,0.0079,0.0112,0.0068,0.0047,0.0045,0.0009,0.0008,0.0007,-0.0014,-0.0014,-0.0014,-0.0014,-0.0085,-0.0088,-0.0091,-0.0109,0,0,-0.01,-0.0101,0,0,0,0,0,0,0,0,0.0081,0.0078,0.0051,0.0049,0.0046,0.0003,-0.0003,-0.0033,-0.0014,0.001,-0.0014,-0.0014,-0.0059,-0.0064,-0.0072,-0.0113,-0.0116,-0.01,-0.0102,-0.0103,-0.0104,0,0,0,0,0,0,0,0.0084,0.008,0.0047,0.005,0.0047,0.0023,0.0019,-0.0009,-0.0022,0.0008,0.0006,-0.0004,-0.006,-0.0069,-0.0074,-0.0117,-0.01,-0.0102,-0.0104,-0.0105,-0.0209,-0.021,0,0,0,0,0,0,0.0089,0.0082,0.0048,0.0045,0.0061,0.0022,0.0018,0.0018,-0.0022,-0.0028,-0.0004,-0.0005,-0.0064,-0.0071,-0.0077,-0.0112,-0.0103,-0.0106,-0.0107,-0.0208,-0.021,-0.0211,0,0,0,0,0,0,0.0091,0.0087,0.0051,0.006,0.0053,0.0022,0.0022,0.0017,0.0003,-0.0031,-0.0038,-0.0013,-0.0065,-0.0073,-0.0112,-0.0115,-0.0107,-0.0109,-0.0207,-0.0209,-0.021,-0.0176,0,0,0,0,0,0,0.0093,0.0089,0.0095,0.0061,0.0053,0.0032,0.0022,0.0016,-0.0004,-0.0005,-0.0042,-0.0048,-0.0065,-0.0107,-0.0115,-0.0119,-0.0112,-0.0206,-0.0208,-0.021,-0.0176,-0.0176,-0.0177,0,0,0,0,0,0.0094,0.0104,0.0096,0.0091,0.0062,0.0031,0.0026,0.0004,-0.0004,-0.0008,-0.0041,-0.0047,-0.0125,-0.0111,-0.0119,-0.0124,-0.0205,-0.0207,-0.021,-0.0176,-0.0176,-0.0177,0,0,0,0,0,0,0.013,0.0101,0.0092,0.0094,0.0064,0.0027,0.0022,0.0002,-0.0026,-0.0026,-0.0061,-0.007,-0.0104,-0.0126,-0.0109,-0.0163,-0.0166,-0.017,-0.0138,-0.0138,-0.0139,-0.0116,-0.0114,0,0,0,0,0,0.0139,0.0139,0.0102,0.0104,0.009,0.0055,0.004,0.0024,-0.0008,-0.002,-0.0051,-0.0086,-0.012,-0.0138,-0.0169,-0.0198,-0.0227,-0.0209,-0.0209,-0.0209,-0.0198,-0.0259,-0.0263,-0.0218,-0.0218,-0.0218,0,0,0.0157,0.0138,0.014,0.0111,0.0089,0.007,0.0047,0.0028,0.0017,-0.0024,-0.005,-0.0088,-0.013,-0.0161,-0.0179,-0.0179,-0.0239,-0.0212,-0.0211,-0.02,-0.0262,-0.0266,-0.0269,-0.022,-0.022,-0.0219,0,0,0.0179,0.017,0.0172,0.0147,0.0111,0.0086,0.0079,0.0038,0.0026,-0.0008,-0.0042,-0.0086,-0.0134,-0.0167,-0.0189,-0.0213,-0.024,-0.0224,-0.0204,-0.0263,-0.0266,-0.027,-0.0316,-0.0324,-0.0222,-0.0222,-0.0222,0,0.02,0.0194,0.0167,0.0153,0.0139,0.0093,0.0087,0.0064,0.0015,0.0006,-0.001,-0.0098,-0.0135,-0.0179,-0.0187,-0.0211,-0.0245,-0.0194,-0.0261,-0.0265,-0.0269,-0.0316,-0.0325,-0.0221,-0.0221,-0.0221,-0.0221,0,0.0212,0.0207,0.0204,0.0174,0.0158,0.0144,0.0107,0.0086,0.0061,0.0034,-0.0012,-0.0074,-0.0119,-0.0148,-0.0173,-0.0222,-0.0236,-0.0254,-0.0253,-0.0271,-0.032,-0.033,-0.0219,-0.022,-0.022,-0.022,0,0,0.0259,0.0222,0.0222,0.0214,0.017,0.0158,0.014,0.0111,0.0106,0.0048,0.0032,-0.0045,-0.0074,-0.0102,-0.0149,-0.0207,-0.0272,-0.0236,-0.024,-0.0268,-0.0395,-0.033,-0.0335,-0.0301,-0.0303,-0.0304,-0.0417,0,0.0275,0.0265,0.0242,0.0235,0.0225,0.0189,0.0181,0.0153,0.0122,0.0093,0.0025,-0.0007,-0.0056,-0.0075,-0.0142,-0.0243,-0.0296,-0.0239,-0.0384,-0.0388,-0.0317,-0.0344,-0.0309,-0.0425,-0.0427,-0.0429,-0.043,0,0.0285,0.0281,0.0284,0.0269,0.0265,0.0262,0.0246,0.0236,0.0189,0.017,0.0118,0.0065,-0.0023,-0.0059,-0.0232,-0.0192,-0.028,-0.0362,-0.0369,-0.0322,-0.0341,-0.0405,-0.0449,-0.0448,-0.0446,-0.0445,-0.0444,0,0.0317,0.0305,0.0315,0.0306,0.0286,0.0297,0.0294,0.0265,0.0274,0.0227,0.0213,0.0106,0.0057,-0.0082,-0.0241,-0.0239,-0.0433,-0.0454,-0.0479,-0.0476,-0.0515,-0.051,-0.0564,-0.0564,-0.0564,-0.0564,-0.0563,0,0.0325,0.0329,0.0338,0.034,0.0369,0.035,0.038,0.0359,0.0352,0.0361,0.0268,0.0233,0.0049,-0.0082,-0.023,-0.038,-0.0425,-0.0473,-0.05,-0.05,-0.0492,-0.0522,-0.0516,-0.0568,-0.0567,-0.0566,-0.0565,0,0.0331,0.0333,0.0348,0.0365,0.038,0.0406,0.0446,0.0467,0.0451,0.0455,0.0446,0.0323,0.0161,-0.0029,-0.0257,-0.0344,-0.051,-0.0548,-0.0525,-0.055,-0.0517,-0.0508,-0.0587,-0.0586,-0.0585,-0.0584,-0.0583,0,0.0323,0.0337,0.0379,0.0409,0.042,0.0467,0.0506,0.0521,0.055,0.0502,0.0503,0.0367,0.0265,-0.0016,-0.0212,-0.0467,-0.0494,-0.0566,-0.0545,-0.0501,-0.052,-0.0513,-0.0506,-0.0581,-0.0581,-0.058,-0.058,0,0.0318,0.0342,0.0354,0.0435,0.049,0.0544,0.0602,0.0633,0.0647,0.0626,0.0559,0.0418,0.0246,0.0019,-0.0163,-0.0355,-0.0516,-0.0554,-0.0558,-0.0539,-0.0494,-0.0513,-0.0507,-0.0576,-0.0577,-0.0577,-0.0577,0,0.0313,0.0333,0.0381,0.0448,0.0519,0.0599,0.0628,0.0663,0.0692,0.0654,0.0626,0.0427,0.0316,0.0077,-0.0112,-0.0269,-0.0305,-0.0346,-0.0361,-0.0368,-0.0261,-0.0169,-0.0171,0,0,0,0,0,0.0303,0.0337,0.0398,0.047,0.0546,0.06,0.0679,0.0707,0.0725,0.0699,0.0675,0.0515,0.0265,0.0133,-0.0011,-0.0097,-0.034,-0.0268,-0.0396,-0.0553,-0.0558,-0.0463,0,0,0,0,0,0,0.0297,0.0341,0.0388,0.0486,0.0543,0.0638,0.0694,0.0713,0.0701,0.0685,0.0545,0.0492,0.0231,0.0336,-0.0018,-0.0066,-0.0159,-0.0391,-0.0393,-0.0551,-0.0555,-0.0559,-0.0462,0,0,0,0,0]}]]